BZN31 KPWM-KBTV

Flight info

Callsign BZN31
Flight time 0h 33m
Altitude 20000
Route HSKEL3 HSKEL GRNMT BTV
Aircraft B38M/M-SDE1FGHILORVWXY/HB1

Departure

Time 2026-05-08 02:40
Airport Portland International Jetport (KPWM)

Arrival

Time 2026-05-08 03:13
Airport Patrick Leahy Burlington International Airport (KBTV)
Time Latitude Longitude Altitude Speed Heading
2026-05-08 02:09 43.64664 -70.31245 78 ft 0 kts 31°
2026-05-08 02:28 43.64665 -70.31242 66 ft 1 kts 51°
2026-05-08 02:29 43.64660 -70.31225 60 ft 5 kts 126°
2026-05-08 02:29 43.64621 -70.31146 59 ft 14 kts 121°
2026-05-08 02:29 43.64589 -70.31008 64 ft 17 kts 95°
2026-05-08 02:29 43.64578 -70.30833 59 ft 20 kts 95°
2026-05-08 02:30 43.64565 -70.30636 62 ft 20 kts 96°
2026-05-08 02:30 43.64551 -70.30438 56 ft 22 kts 95°
2026-05-08 02:30 43.64541 -70.30303 59 ft 1 kts 96°
2026-05-08 02:30 43.64540 -70.30280 59 ft 4 kts 95°
2026-05-08 02:31 43.64536 -70.30231 59 ft 6 kts 95°
2026-05-08 02:31 43.64532 -70.30158 59 ft 9 kts 95°
2026-05-08 02:31 43.64526 -70.30060 57 ft 11 kts 95°
2026-05-08 02:31 43.64522 -70.30004 56 ft 0 kts 96°
2026-05-08 02:33 43.64521 -70.29996 55 ft 3 kts 96°
2026-05-08 02:33 43.64504 -70.29937 51 ft 9 kts 131°
2026-05-08 02:34 43.64495 -70.29927 50 ft 0 kts 146°
2026-05-08 02:37 43.64493 -70.29925 50 ft 0 kts 148°
2026-05-08 02:37 43.64490 -70.29923 51 ft 1 kts 151°
2026-05-08 02:37 43.64465 -70.29915 50 ft 6 kts 178°
2026-05-08 02:37 43.64422 -70.29941 50 ft 8 kts 231°
2026-05-08 02:38 43.64413 -70.30005 51 ft 0 kts 273°
2026-05-08 02:39 43.64416 -70.30060 51 ft 20 kts 275°
2026-05-08 02:40 43.64458 -70.30653 61 ft 102 kts 275°
2026-05-08 02:40 43.64544 -70.31939 132 ft 158 kts 274°
2026-05-08 02:40 43.64644 -70.33491 837 ft 164 kts 277°
2026-05-08 02:40 43.64750 -70.35023 1752 ft 160 kts 279°
2026-05-08 02:41 43.64863 -70.36637 2362 ft 179 kts 278°
2026-05-08 02:41 43.64989 -70.38471 2893 ft 204 kts 278°
2026-05-08 02:41 43.65128 -70.40526 3469 ft 225 kts 277°
2026-05-08 02:41 43.65271 -70.42669 4554 ft 223 kts 276°
2026-05-08 02:42 43.65416 -70.44817 5504 ft 230 kts 276°
2026-05-08 02:42 43.65720 -70.47067 6179 ft 247 kts 283°
2026-05-08 02:42 43.66153 -70.49389 7127 ft 250 kts 284°
2026-05-08 02:42 43.66600 -70.51730 8062 ft 255 kts 284°
2026-05-08 02:43 43.67062 -70.54108 9034 ft 258 kts 284°
2026-05-08 02:43 43.67535 -70.56523 9948 ft 262 kts 284°
2026-05-08 02:43 43.68021 -70.58987 10605 ft 275 kts 284°
2026-05-08 02:43 43.68545 -70.61632 10991 ft 295 kts 284°
2026-05-08 02:44 43.69101 -70.64441 11470 ft 311 kts 283°
2026-05-08 02:44 43.69683 -70.67376 12062 ft 321 kts 283°
2026-05-08 02:44 43.70276 -70.70372 12873 ft 324 kts 283°
2026-05-08 02:44 43.70872 -70.73391 13681 ft 328 kts 282°
2026-05-08 02:45 43.71476 -70.76447 14409 ft 331 kts 282°
2026-05-08 02:45 43.71929 -70.79556 15136 ft 329 kts 269°
2026-05-08 02:45 43.71582 -70.82659 15886 ft 328 kts 251°
2026-05-08 02:45 43.70789 -70.85631 16625 ft 331 kts 249°
2026-05-08 02:46 43.69973 -70.88606 17400 ft 332 kts 248°
2026-05-08 02:46 43.69136 -70.91597 18121 ft 335 kts 248°
2026-05-08 02:46 43.68284 -70.94599 18742 ft 336 kts 247°
2026-05-08 02:46 43.67421 -70.97610 19394 ft 337 kts 247°
2026-05-08 02:47 43.66550 -71.00636 19859 ft 342 kts 246°
2026-05-08 02:47 43.65855 -71.03732 19945 ft 349 kts 258°
2026-05-08 02:47 43.65884 -71.07179 19832 ft 370 kts 274°
2026-05-08 02:47 43.66469 -71.10677 19843 ft 377 kts 277°
2026-05-08 02:48 43.67075 -71.14211 19819 ft 379 kts 277°
2026-05-08 02:48 43.67698 -71.17764 19845 ft 381 kts 277°
2026-05-08 02:48 43.68328 -71.21315 19825 ft 380 kts 277°
2026-05-08 02:48 43.68960 -71.24867 19848 ft 381 kts 277°
2026-05-08 02:49 43.69590 -71.28408 19825 ft 381 kts 277°
2026-05-08 02:49 43.70221 -71.31958 19842 ft 381 kts 277°
2026-05-08 02:49 43.70852 -71.35511 19837 ft 381 kts 277°
2026-05-08 02:49 43.71482 -71.39067 19835 ft 381 kts 277°
2026-05-08 02:50 43.72111 -71.42625 19855 ft 381 kts 278°
2026-05-08 02:50 43.72739 -71.46186 19848 ft 381 kts 278°
2026-05-08 02:50 43.73366 -71.49752 19845 ft 382 kts 278°
2026-05-08 02:50 43.73985 -71.53270 19843 ft 382 kts 278°
2026-05-08 02:51 43.74609 -71.56830 19842 ft 382 kts 278°
2026-05-08 02:51 43.75234 -71.60401 19844 ft 382 kts 278°
2026-05-08 02:51 43.75855 -71.63954 19841 ft 382 kts 278°
2026-05-08 02:51 43.76476 -71.67519 19847 ft 382 kts 278°
2026-05-08 02:52 43.77098 -71.71093 19842 ft 382 kts 278°
2026-05-08 02:52 43.77718 -71.74662 19841 ft 382 kts 277°
2026-05-08 02:52 43.78337 -71.78233 19858 ft 382 kts 278°
2026-05-08 02:52 43.78956 -71.81808 19842 ft 382 kts 278°
2026-05-08 02:53 43.79573 -71.85385 19850 ft 382 kts 278°
2026-05-08 02:53 43.80183 -71.88921 19658 ft 372 kts 278°
2026-05-08 02:53 43.80775 -71.92369 19218 ft 365 kts 278°
2026-05-08 02:53 43.81340 -71.95635 19830 ft 327 kts 277°
2026-05-08 02:54 43.81873 -71.98749 18864 ft 336 kts 278°
2026-05-08 02:54 43.82392 -72.01758 19244 ft 315 kts 277°
2026-05-08 02:54 43.82918 -72.04697 19540 ft 324 kts 280°
2026-05-08 02:54 43.83568 -72.07740 18893 ft 339 kts 276°
2026-05-08 02:55 43.84037 -72.11022 18494 ft 346 kts 279°
2026-05-08 02:55 43.85193 -72.17597 18140 ft 354 kts 280°
2026-05-08 02:55 43.85764 -72.20952 18315 ft 351 kts 279°
2026-05-08 02:56 43.86278 -72.24114 19376 ft 316 kts 277°
2026-05-08 02:56 43.86718 -72.27011 19951 ft 312 kts 276°
2026-05-08 02:56 43.87160 -72.30138 18034 ft 353 kts 277°
2026-05-08 02:56 43.87690 -72.33502 17234 ft 358 kts 281°
2026-05-08 02:57 43.88310 -72.36827 16873 ft 351 kts 281°
2026-05-08 02:57 43.88879 -72.40062 16560 ft 342 kts 279°
2026-05-08 02:57 43.89398 -72.43251 16162 ft 337 kts 280°
2026-05-08 02:57 43.89918 -72.46403 15729 ft 334 kts 280°
2026-05-08 02:58 43.90438 -72.49539 15267 ft 333 kts 281°
2026-05-08 02:58 43.90954 -72.52659 14860 ft 331 kts 281°
2026-05-08 02:58 43.91468 -72.55760 14431 ft 330 kts 281°
2026-05-08 02:58 43.91981 -72.58857 13998 ft 329 kts 281°
2026-05-08 02:59 43.92490 -72.61941 13566 ft 327 kts 281°
2026-05-08 02:59 43.92996 -72.65011 13112 ft 326 kts 281°
2026-05-08 02:59 43.93499 -72.68064 12730 ft 323 kts 281°
2026-05-08 02:59 43.93995 -72.71089 12336 ft 321 kts 282°
2026-05-08 03:00 43.94490 -72.74100 11898 ft 320 kts 282°
2026-05-08 03:00 43.94982 -72.77105 11517 ft 318 kts 282°
2026-05-08 03:00 43.95465 -72.80057 11367 ft 308 kts 282°
2026-05-08 03:00 43.95931 -72.82910 11210 ft 298 kts 282°
2026-05-08 03:01 43.96382 -72.85672 11039 ft 289 kts 282°
2026-05-08 03:01 43.96815 -72.88336 10904 ft 278 kts 282°
2026-05-08 03:01 43.97232 -72.90902 10782 ft 268 kts 282°
2026-05-08 03:01 43.97738 -72.93277 10614 ft 255 kts 296°
2026-05-08 03:02 43.98898 -72.95129 10477 ft 253 kts 322°
2026-05-08 03:02 44.00502 -72.96030 10342 ft 256 kts 346°
2026-05-08 03:02 44.02282 -72.95917 10231 ft 260 kts
2026-05-08 03:02 44.04042 -72.95266 10111 ft 266 kts
2026-05-08 03:03 44.05855 -72.94587 9886 ft 273 kts
2026-05-08 03:03 44.07694 -72.93884 9562 ft 276 kts
2026-05-08 03:03 44.09543 -72.93169 9259 ft 276 kts 10°
2026-05-08 03:03 44.11386 -72.92453 8911 ft 273 kts 11°
2026-05-08 03:04 44.13202 -72.91744 8637 ft 269 kts 11°
2026-05-08 03:04 44.14921 -72.90728 8324 ft 273 kts 32°
2026-05-08 03:04 44.16365 -72.89028 8055 ft 270 kts 36°
2026-05-08 03:04 44.17786 -72.87339 7813 ft 266 kts 36°
2026-05-08 03:05 44.19185 -72.85666 7535 ft 264 kts 36°
2026-05-08 03:05 44.20568 -72.84000 7265 ft 262 kts 36°
2026-05-08 03:05 44.21963 -72.82391 6996 ft 259 kts 27°
2026-05-08 03:05 44.23587 -72.81559 6717 ft 251 kts
2026-05-08 03:06 44.25276 -72.81825 6479 ft 243 kts 336°
2026-05-08 03:06 44.26696 -72.82997 6292 ft 234 kts 316°
2026-05-08 03:06 44.27862 -72.84525 6070 ft 226 kts 314°
2026-05-08 03:06 44.28935 -72.85987 5792 ft 206 kts 312°
2026-05-08 03:07 44.29880 -72.87377 5572 ft 189 kts 310°
2026-05-08 03:07 44.30750 -72.88713 5129 ft 186 kts 310°
2026-05-08 03:07 44.31637 -72.90107 4486 ft 200 kts 309°
2026-05-08 03:07 44.32585 -72.91623 3893 ft 211 kts 309°
2026-05-08 03:08 44.33508 -72.93101 3796 ft 192 kts 309°
2026-05-08 03:08 44.34350 -72.94420 3871 ft 173 kts 309°
2026-05-08 03:08 44.35114 -72.95647 3773 ft 162 kts 308°
2026-05-08 03:08 44.35839 -72.96830 3741 ft 161 kts 309°
2026-05-08 03:09 44.36565 -72.98008 3565 ft 159 kts 309°
2026-05-08 03:09 44.37285 -72.99173 3373 ft 158 kts 309°
2026-05-08 03:09 44.37986 -73.00308 3197 ft 151 kts 309°
2026-05-08 03:09 44.38653 -73.01402 2974 ft 145 kts 309°
2026-05-08 03:10 44.39308 -73.02453 2758 ft 146 kts 309°
2026-05-08 03:10 44.39981 -73.03531 2565 ft 146 kts 309°
2026-05-08 03:10 44.40645 -73.04602 2319 ft 145 kts 307°
2026-05-08 03:10 44.41290 -73.05675 2125 ft 148 kts 309°
2026-05-08 03:11 44.41965 -73.06740 1903 ft 144 kts 309°
2026-05-08 03:11 44.42610 -73.07774 1679 ft 139 kts 308°
2026-05-08 03:11 44.43242 -73.08795 1500 ft 139 kts 309°
2026-05-08 03:11 44.43885 -73.09818 1299 ft 141 kts 310°
2026-05-08 03:12 44.44537 -73.10851 1033 ft 142 kts 309°
2026-05-08 03:12 44.45186 -73.11897 800 ft 143 kts 310°
2026-05-08 03:12 44.45827 -73.12952 590 ft 144 kts 308°
2026-05-08 03:12 44.46480 -73.14023 396 ft 146 kts 309°
2026-05-08 03:13 44.47099 -73.15022 352 ft 119 kts 311°
2026-05-08 03:13 44.47563 -73.15772 357 ft 89 kts 311°
2026-05-08 03:13 44.47902 -73.16310 351 ft 31 kts 310°
2026-05-08 03:13 44.47912 -73.16502 350 ft 11 kts 226°
2026-05-08 03:14 44.47846 -73.16511 350 ft 10 kts 147°
2026-05-08 03:14 44.47804 -73.16439 354 ft 9 kts 122°
2026-05-08 03:14 44.47753 -73.16364 347 ft 13 kts 135°
2026-05-08 03:14 44.47682 -73.16257 346 ft 17 kts 129°
2026-05-08 03:15 44.47599 -73.16122 338 ft 20 kts 132°
2026-05-08 03:15 44.47506 -73.15971 336 ft 18 kts 130°
2026-05-08 03:15 44.47442 -73.15867 342 ft 13 kts 131°
2026-05-08 03:15 44.47376 -73.15761 346 ft 15 kts 131°
2026-05-08 03:16 44.47307 -73.15651 350 ft 15 kts 131°
2026-05-08 03:16 44.47238 -73.15540 351 ft 16 kts 131°
2026-05-08 03:16 44.47176 -73.15438 349 ft 12 kts 131°
2026-05-08 03:16 44.47132 -73.15376 348 ft 8 kts 148°
2026-05-08 03:17 44.47071 -73.15365 351 ft 9 kts 168°
2026-05-08 03:17 44.47048 -73.15356 351 ft 3 kts 166°
2026-05-08 03:17 44.47009 -73.15346 348 ft 7 kts 175°
2026-05-08 03:17 44.46970 -73.15383 350 ft 7 kts 241°
2026-05-08 03:18 44.46960 -73.15410 347 ft 3 kts 242°
2026-05-08 03:18 44.46954 -73.15426 347 ft 1 kts 244°
2026-05-08 03:18 44.46953 -73.15429 353 ft 0 kts 245°